Tracking 28790 objects as of 19-Apr-2024
HD Live streaming from Space Station
objects crossing your sky now

STARLINK-2463

Track STARLINK-2463 now!
10-day predictions
STARLINK-2463 is classified as:


NORAD ID: 48122
Int'l Code: 2021-027AG
Perigee: 553.5 km
Apogee: 555.4 km
Inclination: 53.1 °
Period: 95.6 minutes
Semi major axis: 6925 km
RCS: Unknown
Launch date: April 7, 2021
Source: United States (US)
Launch site: AIR FORCE EASTERN TEST RANGE (AFETR)
Your satellite tracking list
Your tracking list is empty




NASA's NSSDC Master Catalog

Two Line Element Set (TLE):
1 48122U 21027AG  24109.96528737 -.00000129  00000-0  10269-4 0  9997
2 48122  53.0557  12.8817 0001409 107.8052 252.3091 15.06374401168275
Source of the keplerian elements: AFSPC